Location: Kawakawa
(35.3830°S, 174.0670°E)
Time: 19:00:14
(UTC+12:00)

ISS - Pass Details

Date: 06 July 2022
Orbit: 412 x 420 km, 51.6° (Epoch: 13 August)

Event Time Altitude Azimuth Distance (km) Brightness Sun altitude
Rises 19:38:28 0° 234° (SW) 2,378 0.7 -26.7°
Reaches altitude 10° 19:40:38 10° 240° (WSW) 1,507 -0.3 -27.1°
Enters shadow 19:41:53 20° 249° (WSW) 1,035 -1.2 -27.4°
